2016-02-26 00:03:08 r, 17.66m,0000000007Hz,0000060495c,0000000.131s, 010.9C,00002195
2016-02-26 00:13:08 r, 16.79m,0000000017Hz,0000027044c,0000000.059s, 010.6C,00002195
2016-02-26 00:23:08 r, 17.11m,0000000012Hz,0000036567c,0000000.079s, 010.6C,00002195
2016-02-26 00:33:08 r, 17.49m,0000000009Hz,0000051875c,0000000.113s, 010.6C,00002195
2016-02-26 00:43:08 r, 16.89m,0000000016Hz,0000029595c,0000000.064s, 010.3C,00002195
2016-02-26 00:53:08 r, 16.74m,0000000017Hz,0000025933c,0000000.056s, 010.3C,00002195
2016-02-26 01:03:08 r, 16.78m,0000000017Hz,0000026994c,0000000.059s, 010.6C,00002195
2016-02-26 01:13:08 r, 16.48m,0000000022Hz,0000020432c,0000000.044s, 010.6C,00002195
2016-02-26 01:23:08 r, 15.63m,0000000049Hz,0000009319c,0000000.020s, 010.9C,00002195
2016-02-26 01:33:08 r, 15.22m,0000000073Hz,0000006378c,0000000.014s, 011.2C,00002195
2016-02-26 01:43:09 r, 16.04m,0000000034Hz,0000013515c,0000000.029s, 011.2C,00002195
2016-02-26 01:53:08 r, 17.01m,0000000014Hz,0000033327c,0000000.072s, 011.6C,00002195
2016-02-26 02:03:08 r, 17.61m,0000000008Hz,0000057391c,0000000.125s, 011.2C,00002195
2016-02-26 02:13:08 r, 17.59m,0000000008Hz,0000056547c,0000000.123s, 011.2C,00002195
2016-02-26 02:23:08 r, 17.01m,0000000014Hz,0000033304c,0000000.072s, 010.9C,00002195
2016-02-26 02:33:09 r, 16.45m,0000000023Hz,0000019890c,0000000.043s, 010.9C,00002195
2016-02-26 02:43:08 r, 16.21m,0000000029Hz,0000015835c,0000000.034s, 010.9C,00002195
2016-02-26 02:53:08 r, 16.75m,0000000018Hz,0000026107c,0000000.057s, 011.2C,00002195
2016-02-26 03:03:08 r, 16.86m,0000000016Hz,0000028892c,0000000.063s, 011.2C,00002195
2016-02-26 03:13:10 r, 15.64m,0000000049Hz,0000009431c,0000000.020s, 011.2C,00002195
2016-02-26 03:23:08 r, 15.13m,0000000078Hz,0000005872c,0000000.013s, 011.6C,00002195
2016-02-26 03:33:08 r, 15.44m,0000000059Hz,0000007812c,0000000.017s, 011.6C,00002195
2016-02-26 03:43:08 r, 15.39m,0000000062Hz,0000007444c,0000000.016s, 011.9C,00002195
2016-02-26 03:53:08 r, 15.34m,0000000064Hz,0000007132c,0000000.015s, 011.9C,00002195
2016-02-26 04:03:10 r, 15.23m,0000000072Hz,0000006445c,0000000.014s, 011.9C,00002195
2016-02-26 04:13:08 r, 15.30m,0000000067Hz,0000006849c,0000000.015s, 012.2C,00002195
2016-02-26 04:23:08 r, 15.45m,0000000058Hz,0000007904c,0000000.017s, 012.2C,00002195
2016-02-26 04:33:08 r, 15.86m,0000000040Hz,0000011482c,0000000.025s, 012.2C,00002195
2016-02-26 04:43:09 r, 15.83m,0000000042Hz,0000011179c,0000000.024s, 012.2C,00002195
2016-02-26 04:53:08 r, 15.86m,0000000040Hz,0000011518c,0000000.025s, 012.5C,00002195
2016-02-26 05:03:08 r, 16.04m,0000000034Hz,0000013508c,0000000.029s, 012.5C,00002195
2016-02-26 05:13:08 r, 16.30m,0000000027Hz,0000017342c,0000000.038s, 012.5C,00002195
2016-02-26 05:23:08 r, 16.56m,0000000021Hz,0000021938c,0000000.048s, 012.8C,00002195
2016-02-26 05:33:08 r, 16.73m,0000000018Hz,0000025691c,0000000.056s, 012.8C,00002195
2016-02-26 05:43:10 r, 16.69m,0000000019Hz,0000024760c,0000000.054s, 012.8C,00002195
2016-02-26 05:53:08 r, 17.74m,0000000007Hz,0000065169c,0000000.141s, 012.8C,00002195
2016-02-26 06:03:08 r, 17.71m,0000000007Hz,0000063406c,0000000.138s, 012.5C,00002195
2016-02-26 06:13:09 r, 17.55m,0000000008Hz,0000054344c,0000000.118s, 012.5C,00002195
2016-02-26 06:23:08 r, 17.00m,0000000014Hz,0000032904c,0000000.071s, 012.5C,00002195
2016-02-26 06:33:10 r, 15.82m,0000000042Hz,0000011039c,0000000.024s, 012.2C,00002195
2016-02-26 06:43:08 r, 13.92m,0000000240Hz,0000000000c,0000000.000s, 012.2C,00002195
2016-02-26 06:53:10 r, 11.72m,0000001826Hz,0000000000c,0000000.000s, 012.2C,00002195
2016-02-26 07:03:08 r, 09.72m,0000011570Hz,0000000000c,0000000.000s, 012.2C,00002195
2016-02-26 07:13:08 r, 08.21m,0000046542Hz,0000000000c,0000000.000s, 012.2C,00002195
2016-02-26 07:23:08 r, 07.18m,0000118947Hz,0000000000c,0000000.000s, 012.2C,00002195
2016-02-26 07:33:08 r, 06.47m,0000230379Hz,0000000000c,0000000.000s, 012.2C,00002195
2016-02-26 07:43:08 r, 06.00m,0000354890Hz,0000000000c,0000000.000s, 012.5C,00002195
2016-02-26 07:53:08 r, 00.00m,0000504262Hz,0000000000c,0000000.000s, 012.2C,00002195
2016-02-26 08:03:08 r, 00.00m,0000562435Hz,0000000000c,0000000.000s, 012.5C,00002195
2016-02-26 08:13:08 r, 00.00m,0000562474Hz,0000000000c,0000000.000s, 012.8C,00002195
2016-02-26 08:23:08 r, 00.00m,0000562455Hz,0000000000c,0000000.000s, 012.8C,00002195
2016-02-26 08:33:10 r, 00.00m,0000562382Hz,0000000000c,0000000.000s, 013.2C,00002195
2016-02-26 08:43:08 r, 00.00m,0000562485Hz,0000000000c,0000000.000s, 014.1C,00002195
2016-02-26 08:53:08 r, 00.00m,0000562711Hz,0000000000c,0000000.000s, 015.4C,00002195
2016-02-26 09:03:08 r, 00.00m,0000562864Hz,0000000000c,0000000.000s, 016.4C,00002195
2016-02-26 09:13:09 r, 00.00m,0000562964Hz,0000000000c,0000000.000s, 017.4C,00002195
2016-02-26 09:23:08 r, 00.00m,0000563155Hz,0000000000c,0000000.000s, 018.0C,00002195
2016-02-26 09:33:08 r, 00.00m,0000563205Hz,0000000000c,0000000.000s, 019.0C,00002195
2016-02-26 09:43:10 r, 00.00m,0000563315Hz,0000000000c,0000000.000s, 019.6C,00002195
2016-02-26 09:53:08 r, 00.00m,0000563358Hz,0000000000c,0000000.000s, 020.3C,00002195
2016-02-26 10:03:09 r, 00.00m,0000563418Hz,0000000000c,0000000.000s, 020.9C,00002195
2016-02-26 10:13:08 r, 00.00m,0000563462Hz,0000000000c,0000000.000s, 021.2C,00002195
2016-02-26 10:23:08 r, 00.00m,0000563554Hz,0000000000c,0000000.000s, 021.5C,00002195
2016-02-26 10:33:08 r, 00.00m,0000563535Hz,0000000000c,0000000.000s, 021.9C,00002195
2016-02-26 10:43:09 r, 00.00m,0000563618Hz,0000000000c,0000000.000s, 022.2C,00002195
2016-02-26 10:53:08 r, 00.00m,0000563750Hz,0000000000c,0000000.000s, 022.5C,00002195
2016-02-26 11:03:10 r, 00.00m,0000563843Hz,0000000000c,0000000.000s, 023.5C,00002195
2016-02-26 11:13:08 r, 00.00m,0000563964Hz,0000000000c,0000000.000s, 024.1C,00002195
2016-02-26 11:23:08 r, 00.00m,0000563968Hz,0000000000c,0000000.000s, 025.1C,00002195
2016-02-26 11:33:08 r, 00.00m,0000564059Hz,0000000000c,0000000.000s, 025.4C,00002195
2016-02-26 11:43:10 r, 00.00m,0000564077Hz,0000000000c,0000000.000s, 026.1C,00002195
2016-02-26 11:53:08 r, 00.00m,0000564141Hz,0000000000c,0000000.000s, 026.7C,00002195
2016-02-26 12:03:08 r, 00.00m,0000564201Hz,0000000000c,0000000.000s, 026.7C,00002195
2016-02-26 12:13:10 r, 00.00m,0000564150Hz,0000000000c,0000000.000s, 026.7C,00002195
2016-02-26 12:23:08 r, 00.00m,0000564217Hz,0000000000c,0000000.000s, 026.7C,00002195
2016-02-26 12:33:10 r, 00.00m,0000564227Hz,0000000000c,0000000.000s, 027.0C,00002195
2016-02-26 12:43:08 r, 00.00m,0000564109Hz,0000000000c,0000000.000s, 026.7C,00002195
2016-02-26 12:53:08 r, 00.00m,0000564200Hz,0000000000c,0000000.000s, 026.7C,00002195
2016-02-26 13:03:10 r, 00.00m,0000564195Hz,0000000000c,0000000.000s, 027.0C,00002195
2016-02-26 13:13:08 r, 00.00m,0000564231Hz,0000000000c,0000000.000s, 026.7C,00002195
2016-02-26 13:23:08 r, 00.00m,0000564201Hz,0000000000c,0000000.000s, 026.7C,00002195
2016-02-26 13:33:08 r, 00.00m,0000564307Hz,0000000000c,0000000.000s, 027.0C,00002195
2016-02-26 13:43:08 r, 00.00m,0000564359Hz,0000000000c,0000000.000s, 027.7C,00002195
2016-02-26 13:53:08 r, 00.00m,0000564298Hz,0000000000c,0000000.000s, 027.7C,00002195
2016-02-26 14:03:09 r, 00.00m,0000564302Hz,0000000000c,0000000.000s, 027.7C,00002195
2016-02-26 14:13:08 r, 00.00m,0000564276Hz,0000000000c,0000000.000s, 028.0C,00002195
2016-02-26 14:23:08 r, 00.00m,0000564265Hz,0000000000c,0000000.000s, 027.7C,00002195
2016-02-26 14:33:08 r, 00.00m,0000564166Hz,0000000000c,0000000.000s, 028.0C,00002195
2016-02-26 14:43:08 r, 00.00m,0000564205Hz,0000000000c,0000000.000s, 028.0C,00002195
2016-02-26 14:53:08 r, 00.00m,0000564138Hz,0000000000c,0000000.000s, 028.3C,00002195
2016-02-26 15:03:08 r, 00.00m,0000564262Hz,0000000000c,0000000.000s, 028.6C,00002195
2016-02-26 15:13:09 r, 00.00m,0000564206Hz,0000000000c,0000000.000s, 028.3C,00002195
2016-02-26 15:23:08 r, 00.00m,0000564144Hz,0000000000c,0000000.000s, 028.0C,00002195
2016-02-26 15:33:08 r, 00.00m,0000564136Hz,0000000000c,0000000.000s, 027.7C,00002195
2016-02-26 15:43:08 r, 00.00m,0000564155Hz,0000000000c,0000000.000s, 027.3C,00002195
2016-02-26 15:53:08 r, 00.00m,0000564162Hz,0000000000c,0000000.000s, 027.0C,00002195
2016-02-26 16:03:08 r, 00.00m,0000563970Hz,0000000000c,0000000.000s, 026.4C,00002195
2016-02-26 16:13:10 r, 00.00m,0000563838Hz,0000000000c,0000000.000s, 024.8C,00002195
2016-02-26 16:23:08 r, 00.00m,0000563715Hz,0000000000c,0000000.000s, 023.5C,00002195
2016-02-26 16:33:08 r, 00.00m,0000563526Hz,0000000000c,0000000.000s, 022.8C,00002195
2016-02-26 16:43:10 r, 00.00m,0000563434Hz,0000000000c,0000000.000s, 021.9C,00002195
2016-02-26 16:53:09 r, 00.00m,0000563338Hz,0000000000c,0000000.000s, 021.5C,00002195
2016-02-26 17:03:08 r, 00.00m,0000563307Hz,0000000000c,0000000.000s, 021.2C,00002195
2016-02-26 17:13:09 r, 00.00m,0000563373Hz,0000000000c,0000000.000s, 021.2C,00002195
2016-02-26 17:23:09 r, 00.00m,0000531408Hz,0000000000c,0000000.000s, 021.2C,00002195
2016-02-26 17:33:10 r, 00.00m,0000448192Hz,0000000000c,0000000.000s, 021.2C,00002195
2016-02-26 17:43:09 r, 06.05m,0000338287Hz,0000000000c,0000000.000s, 020.9C,00002195
2016-02-26 17:53:09 r, 06.54m,0000216566Hz,0000000000c,0000000.000s, 020.3C,00002195
2016-02-26 18:03:08 r, 07.44m,0000094369Hz,0000000000c,0000000.000s, 019.6C,00002195
2016-02-26 18:13:08 r, 08.58m,0000033266Hz,0000000000c,0000000.000s, 019.3C,00002195
2016-02-26 18:23:10 r, 10.20m,0000007367Hz,0000000000c,0000000.000s, 019.0C,00002195
2016-02-26 18:33:08 r, 12.27m,0000001106Hz,0000000000c,0000000.000s, 018.6C,00002195
2016-02-26 18:43:09 r, 14.48m,0000000144Hz,0000000000c,0000000.000s, 018.6C,00002195
2016-02-26 18:53:09 r, 16.28m,0000000028Hz,0000016902c,0000000.037s, 018.3C,00002195
2016-02-26 19:03:08 r, 17.33m,0000000011Hz,0000044344c,0000000.096s, 018.0C,00002195
2016-02-26 19:13:10 r, 17.79m,0000000006Hz,0000068575c,0000000.149s, 018.0C,00002195
2016-02-26 19:23:09 r, 17.96m,0000000006Hz,0000080347c,0000000.174s, 017.7C,00002195
2016-02-26 19:33:08 r, 18.01m,0000000005Hz,0000083240c,0000000.181s, 018.0C,00002195
2016-02-26 19:43:09 r, 18.02m,0000000005Hz,0000084195c,0000000.183s, 018.0C,00002195
2016-02-26 19:53:08 r, 18.02m,0000000006Hz,0000084403c,0000000.183s, 018.0C,00002195
2016-02-26 20:03:08 r, 18.02m,0000000006Hz,0000084218c,0000000.183s, 018.3C,00002195
2016-02-26 20:13:09 r, 17.99m,0000000005Hz,0000082402c,0000000.179s, 018.3C,00002195
2016-02-26 20:23:09 r, 17.93m,0000000006Hz,0000077804c,0000000.169s, 018.3C,00002195
2016-02-26 20:33:08 r, 17.91m,0000000006Hz,0000076766c,0000000.167s, 018.6C,00002195
2016-02-26 20:43:10 r, 17.94m,0000000006Hz,0000078453c,0000000.170s, 018.6C,00002195
2016-02-26 20:53:09 r, 17.93m,0000000006Hz,0000077489c,0000000.168s, 018.6C,00002195
2016-02-26 21:03:08 r, 17.88m,0000000006Hz,0000073815c,0000000.160s, 019.0C,00002195
2016-02-26 21:13:08 r, 17.86m,0000000006Hz,0000073204c,0000000.159s, 019.0C,00002195
2016-02-26 21:23:09 r, 17.94m,0000000006Hz,0000078753c,0000000.171s, 019.0C,00002195
2016-02-26 21:33:08 r, 17.96m,0000000005Hz,0000079634c,0000000.173s, 019.3C,00002195
2016-02-26 21:43:08 r, 17.91m,0000000006Hz,0000076620c,0000000.166s, 019.3C,00002195
2016-02-26 21:53:08 r, 17.84m,0000000007Hz,0000071197c,0000000.155s, 019.3C,00002195
2016-02-26 22:03:10 r, 17.86m,0000000006Hz,0000073060c,0000000.159s, 019.3C,00002195
2016-02-26 22:13:08 r, 17.71m,0000000007Hz,0000063034c,0000000.137s, 019.3C,00002195
2016-02-26 22:23:10 r, 17.79m,0000000007Hz,0000068158c,0000000.148s, 019.0C,00002195
2016-02-26 22:33:09 r, 18.01m,0000000005Hz,0000083512c,0000000.181s, 019.0C,00002195
2016-02-26 22:43:09 r, 18.07m,0000000005Hz,0000088110c,0000000.191s, 018.6C,00002195
2016-02-26 22:53:10 r, 18.06m,0000000005Hz,0000087525c,0000000.190s, 018.6C,00002195
2016-02-26 23:03:08 r, 18.06m,0000000005Hz,0000087254c,0000000.189s, 018.6C,00002195
2016-02-26 23:13:10 r, 18.04m,0000000006Hz,0000085558c,0000000.186s, 018.6C,00002195
2016-02-26 23:23:09 r, 18.05m,0000000006Hz,0000086143c,0000000.187s, 018.6C,00002195
2016-02-26 23:33:08 r, 18.03m,0000000006Hz,0000085431c,0000000.185s, 018.6C,00002195
2016-02-26 23:43:08 r, 18.02m,0000000006Hz,0000084454c,0000000.183s, 019.0C,00002195
2016-02-26 23:53:09 r, 18.01m,0000000006Hz,0000083476c,0000000.181s, 019.0C,00002195
